Kuchera_Ratio
0.0 0.0 0.0 0.0 0.0 0.0 0.0 0.0 0.0 0.0 0.0 0.0 0.0 0.0 0.0 0.0 0.0 0.0 0.0 0.0 0.0 0.0 0.0 0.0 0.0 0.0 0.0 0.0 0.0 0.0 0.0 0.0 1.7 1.3 0.0 0.0 0.0 0.4 0.2 3.5 8.5 9.2 10.9 5.8
0.0 0.0 0.0 0.0 0.0 0.0 0.0 0.0 0.0 0.0 0.0 2.8 1.6 0.0 0.0 0.0 0.0 0.0 0.0 0.0 0.0 0.0 0.0 0.0 0.0 0.0 0.0 0.0 0.0 0.0 0.0 0.0 4.3 6.2 5.8 2.5 5.4 3.7 1.8 2.8 5.6 6.9 12.7 4.3
0.0 0.0 0.0 0.0 0.0 0.0 0.0 0.0 2.9 0.0 0.0 0.0 0.0 0.0 0.0 0.0 0.0 0.0 0.0 0.0 0.0 0.0 0.0 0.0 0.0 0.0 0.0 0.0 0.0 0.0 0.0 0.0 0.0 1.0 0.0 0.2 4.8 2.4 2.7 1.4 7.8 7.4 6.8 0.9
0.0 0.0 0.0 0.0 0.0 0.0 0.0 0.0 2.1 0.0 3.0 0.8 0.0 0.0 0.0 0.0 0.0 0.0 0.0 0.0 0.0 0.0 0.0 0.0 0.0 0.0 0.0 0.0 0.0 0.0 0.0 0.2 0.0 0.0 0.6 0.8 0.7 0.3 3.0 4.4 1.0 7.4 0.0 1.1
0.0 0.0 0.0 0.0 0.0 0.0 0.0 2.6 3.0 1.4 3.7 0.4 2.2 1.3 1.8 0.0 0.0 0.0 0.0 0.0 0.0 0.0 0.0 0.0 0.0 0.0 0.0 0.0 0.0 0.0 0.0 2.7 2.3 4.2 2.9 4.8 6.1 3.4 2.1 1.8 0.9 2.7 1.6 2.0
0.0 0.0 0.0 0.0 0.0 0.0 0.0 0.0 0.0 1.9 4.1 4.2 5.8 3.9 1.6 0.0 0.0 0.0 0.0 0.0 0.0 0.0 0.0 0.0 0.0 0.0 0.0 0.0 0.0 0.1 2.6 2.1 6.8 7.3 6.8 8.7 12.8 0.0 2.2 1.0 0.3 1.1 7.0 0.0
0.0 0.0 0.0 0.0 0.0 0.0 0.0 0.0 0.0 6.9 9.9 5.6 5.0 2.6 3.3 3.4 0.0 0.0 0.0 0.0 0.0 0.0 0.0 0.0 0.0 0.0 0.0 0.0 0.0 0.0 2.1 4.2 4.3 8.5 10.6 14.7 0.0 0.0 0.0 0.0 0.0 0.0 0.0 0.0
0.0 0.0 0.0 0.0 0.0 0.0 0.0 0.0 0.0 7.1 10.2 5.4 4.1 3.7 2.7 0.8 0.5 1.1 0.0 0.0 0.0 0.0 0.0 0.0 6.6 6.5 2.8 4.0 4.0 3.8 1.3 3.0 9.1 9.5 13.0 5.9 0.4 0.0 0.3 0.2 0.0 0.0 0.0 0.0
0.0 0.0 0.0 0.0 0.0 0.0 0.0 0.0 0.0 1.9 9.0 7.9 0.7 3.1 1.8 5.7 6.4 3.3 0.0 0.0 0.0 0.0 0.0 1.8 8.7 12.0 7.6 10.0 8.8 7.7 5.6 4.3 3.1 12.1 12.4 15.0 1.2 0.0 0.0 0.7 3.4 0.0 0.0 0.0
0.0 0.0 0.0 0.0 0.0 0.0 0.0 0.0 0.0 0.0 9.5 3.4 1.7 5.2 4.8 0.0 1.8 4.1 2.1 0.6 0.6 0.0 0.0 5.7 9.1 7.8 5.9 10.4 9.2 11.2 12.7 11.5 9.0 9.1 10.5 5.5 0.0 0.0 0.0 7.7 0.9 0.0 0.0 0.0
0.0 0.0 0.0 0.0 0.0 0.0 0.0 0.0 0.0 0.0 6.5 3.0 0.0 0.0 1.0 1.5 2.1 7.7 2.2 2.1 1.5 4.2 5.5 3.4 5.9 5.3 4.0 6.4 9.0 8.7 9.0 11.7 11.4 9.2 11.4 11.6 0.0 1.8 3.0 0.0 0.0 0.0 0.0 0.0
0.0 0.0 0.0 0.0 0.0 0.0 0.0 0.0 0.0 0.0 1.7 3.1 0.0 0.0 0.0 0.0 0.0 1.5 3.5 3.3 2.9 0.0 0.5 3.3 3.8 5.4 6.5 3.8 10.7 9.8 9.6 2.8 4.5 5.0 3.2 0.0 0.0 0.0 0.0 0.0 0.0 0.0 0.0 0.0
0.0 0.0 0.0 0.0 0.0 0.0 0.0 0.0 0.0 0.0 3.1 2.9 1.1 1.3 0.0 0.0 0.0 0.0 4.2 1.3 0.0 0.0 0.0 0.0 0.0 2.9 2.0 8.5 6.8 3.9 5.6 2.9 3.6 3.7 0.0 0.0 0.0 0.0 0.0 0.0 0.0 0.0 0.0 0.0
0.0 0.0 0.0 0.0 0.0 0.0 0.0 0.0 0.0 0.0 4.2 10.0 6.2 0.0 0.6 0.0 0.0 0.0 0.0 0.0 0.0 0.0 0.0 0.0 0.0 2.7 0.0 3.0 1.5 2.5 1.9 2.7 4.3 3.8 2.0 0.0 0.0 0.0 0.0 0.0 0.0 0.5 2.1 4.8
0.0 0.0 0.0 0.0 0.0 0.0 0.0 0.0 0.0 0.0 2.4 9.6 7.4 1.4 0.0 0.0 0.0 0.0 0.0 0.0 0.0 1.0 3.3 0.8 0.5 0.0 1.2 5.2 3.4 4.2 2.0 0.5 2.7 1.7 0.0 0.0 0.0 0.0 0.0 0.0 1.3 3.7 4.9 9.4
0.0 0.0 0.0 0.0 0.0 0.0 0.0 4.4 0.0 0.0 0.0 5.7 11.2 0.4 3.1 4.0 2.3 2.2 0.6 0.0 0.0 0.0 2.0 2.1 0.0 0.0 0.0 4.5 4.9 0.0 0.0 0.0 0.0 0.0 0.0 0.0 0.0 0.0 0.0 1.5 5.3 6.4 11.7 12.0
0.0 0.0 0.0 0.0 0.0 0.0 2.0 4.4 0.0 0.0 0.0 6.9 10.8 9.2 8.2 6.1 3.7 3.7 3.1 2.3 1.7 0.0 1.3 5.6 0.0 0.2 0.2 3.0 5.7 0.0 0.0 0.0 0.0 0.0 0.0 1.1 1.3 0.0 1.5 6.6 8.1 12.5 13.5 14.4
0.0 0.0 0.0 0.0 0.0 0.0 0.0 0.0 0.0 0.0 3.0 7.0 12.4 11.0 12.3 6.7 8.3 9.1 7.0 7.6 6.3 4.8 5.4 6.4 4.0 5.6 5.6 8.3 7.1 3.0 0.1 0.0 0.6 0.6 1.0 0.9 2.0 4.9 8.1 11.1 12.8 13.9 14.7 15.3
0.0 0.0 0.0 0.0 0.0 2.6 1.4 0.0 0.0 0.0 1.8 10.0 11.5 15.2 14.0 8.4 10.1 9.4 9.4 7.9 9.4 9.0 8.6 7.0 3.3 10.3 10.6 10.5 11.1 9.8 8.1 7.4 6.6 6.4 6.2 7.1 9.0 10.5 12.4 13.9 15.2 15.1 16.0 16.5
0.0 0.0 3.0 7.9 3.1 0.0 0.0 1.4 6.1 7.9 8.0 9.0 13.3 10.9 12.9 10.7 11.7 12.3 11.6 10.7 12.9 13.3 13.3 10.1 9.2 13.4 13.8 13.3 13.2 12.8 12.8 12.4 11.4 10.7 11.5 12.2 13.4 13.8 14.2 16.0 16.4 16.2 16.6 17.6
0.3 6.8 7.8 3.9 0.0 3.0 7.4 11.3 12.5 12.8 14.5 12.8 13.2 12.6 13.9 10.1 13.4 13.5 11.6 13.6 13.1 15.2 14.9 13.6 15.1 15.9 15.6 15.2 15.2 14.9 14.6 14.4 14.4 14.2 13.6 14.8 14.5 15.4 16.3 17.2 17.2 16.8 17.2 18.1
2.7 4.4 4.5 6.0 8.7 10.6 13.0 14.2 14.3 14.7 16.1 14.3 15.5 13.1 12.2 12.1 9.2 12.7 13.0 14.3 13.6 17.5 13.5 14.8 19.5 18.6 17.6 17.5 17.4 16.7 15.8 15.5 15.5 15.0 15.6 15.9 16.0 16.4 17.1 17.4 17.7 17.9 18.3 18.4
3.4 8.1 10.3 11.4 12.0 15.3 17.5 18.9 15.8 16.2 14.2 13.3 13.1 14.0 12.8 12.1 11.3 13.8 14.4 16.6 17.6 13.8 16.7 19.9 19.9 18.1 17.8 17.8 17.4 17.4 16.5 16.4 16.6 16.8 16.7 16.9 17.4 16.8 17.3 18.3 18.5 18.5 18.7 19.1
9.9 12.9 16.5 16.9 18.0 17.4 16.7 16.8 16.0 13.9 13.6 13.4 13.1 13.8 13.9 13.1 14.7 14.7 17.1 16.0 14.8 17.6 19.7 21.2 19.1 18.7 18.3 17.6 17.2 17.6 18.2 17.5 17.6 17.8 17.7 18.0 18.1 18.9 18.9 18.7 19.0 19.1 19.4 19.8
15.1 14.5 18.5 16.9 15.1 14.4 14.5 14.2 14.2 13.5 14.0 14.1 13.3 13.4 13.4 14.9 15.7 15.3 16.0 17.0 20.3 20.1 21.2 19.8 18.8 18.4 18.3 18.7 18.6 18.9 18.9 18.8 18.9 19.2 19.2 19.0 18.9 18.9 19.3 19.7 20.1 20.2 20.0 20.0
15.2 16.5 17.9 16.3 16.2 16.0 15.9 16.0 16.2 14.8 16.2 14.5 12.7 14.3 15.8 17.5 17.0 19.0 21.9 20.1 23.7 22.2 20.1 18.6 18.0 18.8 19.0 19.3 19.4 19.7 19.7 19.7 19.8 19.4 19.1 19.2 19.5 19.6 19.7 20.2 20.5 20.5 20.6 20.8
17.2 17.3 15.1 16.2 16.5 17.6 17.5 16.9 17.0 16.2 16.4 16.4 15.3 18.4 19.9 16.1 19.8 22.5 21.9 24.0 22.3 20.9 19.9 19.0 18.6 18.9 19.5 19.5 19.7 20.2 20.3 20.1 20.1 20.0 20.3 20.1 20.3 20.4 20.5 20.4 20.7 21.0 21.3 21.7